This demonstration page uses our WeatherBlox Daily Observations layout. Learn more.

Left ArrowRight Arrow

Hourly Observations for August 29, 2018

Temp ( °F °C ) Dew Point ( °F °C ) Humidity (%) Winds ( mph kmh ) Pressure ( in mb ) Visibility ( mi km ) Precip ( " mm )
12:15 am 00:15 Clear 77 25.1 72 22.1 83 83 SSW 12 19 30.00 1016 10 16 0.00 0.00
12:35 am 00:35 Clear 77 25.1 72 22 83 83 SSW 10 17 30.00 1016 10 16 0.00 0.00
12:55 am 00:55 Clear 77 24.8 72 22 84 84 SSW 10 17 30.03 1017 10 16 0.00 0.00
1:15 am 01:15 Clear 76 24.5 72 22 86 86 SSW 10 17 30.00 1016 10 16 0.00 0.00
1:35 am 01:35 Clear 76 24.2 71 21.8 87 87 SSW 9 15 30.00 1016 10 16 0.00 0.00
1:55 am 01:55 Clear 75 24 71 21.7 87 87 SSW 7 11 30.00 1016 10 16 0.00 0.00
2:15 am 02:15 Clear 74 23.1 71 21.7 92 92 S 9 15 29.97 1015 10 16 0.00 0.00
2:35 am 02:35 Clear 74 23.3 71 21.6 90 90 S 7 11 29.97 1015 10 16 0.00 0.00
2:55 am 02:55 Clear 73 22.9 71 21.5 92 92 SSW 6 9 29.97 1015 10 16 0.00 0.00
3:15 am 03:15 Clear 73 22.7 71 21.5 93 93 SSW 5 7 29.97 1015 10 16 0.00 0.00
3:35 am 03:35 Clear 72 22.2 70 21.2 94 94 W 3 6 29.97 1015 10 16 0.00 0.00
3:55 am 03:55 Partly Cloudy 72 22.2 71 21.5 96 96 NW 5 7 30.00 1016 10 16 0.00 0.00
4:15 am 04:15 Clear 70 21.2 70 21.1 99 99 SSW 3 6 29.97 1015 10 16 0.00 0.00
4:35 am 04:35 Clear 69 20.7 69 20.7 100 100 S 3 6 30.03 1017 10 16 0.00 0.00
4:55 am 04:55 Clear 69 20.5 69 20.5 100 100 Calm 30.00 1016 10 16 0.00 0.00
5:15 am 05:15 Partly Cloudy 69 20.5 69 20.5 100 100 S 3 6 30.03 1017 10 16 0.00 0.00
5:35 am 05:35 Mostly Cloudy 70 21 70 21 100 100 S 5 7 30.00 1016 10 16 0.00 0.00
5:55 am 05:55 Partly Cloudy 70 21 70 21 100 100 S 5 7 30.00 1016 10 16 0.00 0.00
6:15 am 06:15 Partly Cloudy 69 20.6 69 20.6 100 100 S 5 7 30.00 1016 10 16 0.00 0.00
6:35 am 06:35 Mostly Cloudy 70 21.1 70 21.1 100 100 S 5 7 30.00 1016 10 16 0.00 0.00
6:55 am 06:55 Mostly Cloudy 70 21.3 70 21.3 100 100 WSW 5 7 30.03 1017 10 16 0.00 0.00
7:15 am 07:15 Cloudy with Light Rain 72 22.1 71 21.5 96 96 W 6 9 30.03 1017 10 16 0.00 0.00
7:35 am 07:35 Cloudy with Light Rain 71 21.5 71 21.5 100 100 W 6 9 30.06 1018 10 16 0.00 0.00
7:55 am 07:55 Cloudy with Light Rain 70 20.9 69 20.4 97 97 NW 8 13 30.06 1018 7 11 0.01 0.25
8:15 am 08:15 Mostly Cloudy with Light Rain 70 21 69 20.8 99 99 Calm 30.06 1018 10 16 0.01 0.25
8:35 am 08:35 Mostly Cloudy 70 20.9 70 20.9 100 100 W 6 9 30.06 1018 10 16 0.01 0.25
8:55 am 08:55 Mostly Cloudy 69 20.7 69 20.6 99 99 WSW 5 7 30.06 1018 10 16 0.01 0.25
9:15 am 09:15 Mostly Cloudy 71 21.7 71 21.4 98 98 WSW 8 13 30.06 1018 10 16 0.00 0.00
9:35 am 09:35 Mostly Cloudy 72 22.2 70 21.1 94 94 WSW 6 9 30.03 1017 10 16 0.00 0.00
9:55 am 09:55 Cloudy 72 22.4 71 21.5 95 95 W 5 7 30.03 1017 10 16 0.00 0.00
10:15 am 10:15 Mostly Cloudy 73 23 70 21.3 90 90 SW 7 11 30.03 1017 10 16 0.00 0.00
10:35 am 10:35 Partly Cloudy 74 23.3 69 20.6 85 85 SE 10 17 29.97 1015 10 16 0.00 0.00
10:55 am 10:55 Sunny 76 24.5 69 20.3 78 78 SSE 13 20 29.94 1014 10 16 0.00 0.00
11:15 am 11:15 Sunny 78 25.3 69 20.5 75 75 S 12 19 29.97 1015 10 16 0.00 0.00
11:35 am 11:35 Sunny 78 25.5 68 20.2 73 73 S 10 17 29.97 1015 10 16 0.00 0.00
11:55 am 11:55 Sunny 78 25.8 69 20.4 72 72 SSE 13 20 29.94 1014 10 16 0.00 0.00
12:15 pm 12:15 Sunny 80 26.5 69 20.6 70 70 S 7 11 29.97 1015 10 16 0.00 0.00
12:35 pm 12:35 Sunny 80 26.8 69 20.3 68 68 SW 3 6 29.97 1015 10 16 0.00 0.00
12:55 pm 12:55 Sunny 81 27.1 69 20.7 68 68 SW 6 9 30.00 1016 10 16 0.00 0.00
1:15 pm 13:15 Sunny 81 27.4 69 20.8 67 67 WSW 8 13 30.00 1016 10 16 0.00 0.00
1:35 pm 13:35 Sunny 82 28 70 21.2 67 67 W 9 15 30.00 1016 10 16 0.00 0.00
1:55 pm 13:55 Sunny 83 28.1 70 21.2 66 66 WNW 8 13 30.00 1016 10 16 0.00 0.00
2:15 pm 14:15 Partly Cloudy 83 28.2 69 20.7 64 64 W 10 17 30.03 1017 10 16 0.00 0.00
2:35 pm 14:35 Partly Cloudy 81 27.2 69 20.8 68 68 WNW 8 13 30.00 1016 10 16 0.00 0.00
2:55 pm 14:55 Partly Cloudy 83 28.3 71 21.6 67 67 WNW 10 17 30.03 1017 10 16 0.00 0.00
3:15 pm 15:15 Sunny 80 26.7 70 20.9 71 71 WNW 8 13 30.03 1017 10 16 0.00 0.00
3:35 pm 15:35 Sunny 81 27.1 69 20.8 69 69 W 8 13 30.03 1017 10 16 0.00 0.00
3:55 pm 15:55 Partly Cloudy 81 27.2 71 21.5 71 71 WNW 7 11 30.03 1017 10 16 0.00 0.00
4:15 pm 16:15 Partly Cloudy 80 26.7 71 21.6 74 74 W 10 17 30.03 1017 10 16 0.00 0.00
4:35 pm 16:35 Partly Cloudy 81 27 69 20.3 67 67 WNW 12 19 30.03 1017 10 16 0.00 0.00
4:55 pm 16:55 Sunny 80 26.6 68 20.1 68 68 WNW 10 17 30.03 1017 10 16 0.00 0.00
5:15 pm 17:15 Sunny 80 26.5 67 19.4 65 65 WNW 8 13 30.03 1017 10 16 0.00 0.00
5:35 pm 17:35 Sunny 78 25.3 67 19.2 69 69 NW 9 15 30.03 1017 10 16 0.00 0.00
5:55 pm 17:55 Sunny 78 25.3 67 19.7 71 71 WNW 8 13 30.03 1017 10 16 0.00 0.00
6:15 pm 18:15 Sunny 78 25.4 69 20.5 74 74 NW 9 15 30.03 1017 10 16 0.00 0.00
6:35 pm 18:35 Sunny 77 25 67 19.7 72 72 NNW 10 17 30.03 1017 10 16 0.00 0.00
6:55 pm 18:55 Sunny 76 24.3 69 20.3 78 78 NNW 10 17 30.03 1017 10 16 0.00 0.00
7:15 pm 19:15 Sunny 76 24.6 69 20.3 77 77 NW 8 13 30.03 1017 10 16 0.00 0.00
7:35 pm 19:35 Mostly Cloudy 76 24.5 69 20.5 78 78 NNW 9 15 30.03 1017 10 16 0.00 0.00
7:55 pm 19:55 Mostly Cloudy 74 23.6 67 19.7 79 79 NW 6 9 30.03 1017 10 16 0.00 0.00
8:15 pm 20:15 Sunny 73 22.7 68 20.2 86 86 NNW 6 9 30.03 1017 10 16 0.00 0.00
8:35 pm 20:35 Clear 71 21.9 68 20.1 90 90 NNW 5 7 30.03 1017 10 16 0.00 0.00
8:55 pm 20:55 Clear 71 21.5 68 19.9 91 91 NNW 5 7 30.06 1018 10 16 0.00 0.00
9:15 pm 21:15 Clear 69 20.8 68 19.9 95 95 NW 3 6 30.06 1018 10 16 0.00 0.00
9:35 pm 21:35 Clear 69 20.6 67 19.7 95 95 NNW 5 7 30.06 1018 10 16 0.00 0.00
9:55 pm 21:55 Clear 68 20.2 67 19.7 97 97 Calm 30.06 1018 10 16 0.00 0.00
10:15 pm 22:15 Partly Cloudy 67 19.7 67 19.5 99 99 Calm 30.09 1019 10 16 0.00 0.00
10:35 pm 22:35 Mostly Cloudy 69 20.5 68 20 97 97 N 6 9 30.09 1019 10 16 0.00 0.00
10:55 pm 22:55 Mostly Cloudy 68 20.1 68 20 99 99 N 6 9 30.09 1019 10 16 0.00 0.00
11:15 pm 23:15 Mostly Cloudy 68 20 67 19.7 98 98 N 7 11 30.09 1019 10 16 0.00 0.00
11:35 pm 23:35 Cloudy 67 19.6 67 19.5 99 99 N 6 9 30.09 1019 10 16 0.00 0.00
11:55 pm 23:55 Cloudy 67 19.7 67 19.3 98 98 N 6 9 30.12 1020 10 16 0.00 0.00

Powered by AerisWeather